| 
				
				
				
					
						
					 | 
				
				
				
					
					
					Asteroid 2014 RO60
					
					
					
					
						
					
					
						
							(Preview)
						
						
						
						
							
						
							
								The 20 - 45 metre wide asteroid 2014 RO60 made a close pass (24.3 lunar distances, 0.0625 AU), travelling at 7.19 km/second, to the Earth-Moon system on the 22nd September 2014 @ 21:59 UT ±00:02.  See more The Lunar Distance (LD), the distance between Earth and the Moon, equals 384,401 km, (or 0.00256...  
							 
							
						 
						
					
				 | 
				
					
						Blobrana
					 | 
				
				
					
						0
					 | 
				
				
				
					
						
					 | 
				
				
					
						
					 | 
				
			
		
			
			
				
				
					
						 
					 | 
				
				
				
					
						
					 | 
				
				
				
					
					
					Asteroid 2014 SN142
					
					
					
					
						
					
					
						
							(Preview)
						
						
						
						
							
						
							
								Orbital elements:
2014 SN142                                               Earth MOID = 0.0029 AU
Epoch 2014 Dec. 9.0 TT = JDT 2457000.5                  MPC
M  12.91008              (2000.0)            P               Q
n   0.36022660     Peri.  241.59554     +0.51826190     -0.85521762
a   1.9562253      Node   177.18426     +0.80277804     +0.48538019
e   0.5772196      Incl.    3.17924     +0.29487629     +0.18168350
P   2.74           H   28.2           G... 
							 
							
						 
						
					
				 | 
				
					
						Blobrana
					 | 
				
				
					
						1
					 | 
				
				
				
					
						
					 | 
				
				
					
						
					 | 
				
			
		
			
			
				
				
					
						 
					 | 
				
				
				
					
						
					 | 
				
				
				
					
					
					Asteroid 2014 SN
					
					
					
					
						
					
					
						
							(Preview)
						
						
						
						
							
						
							
								The 46 - 100 metre wide asteroid 2014 SN will make a close pass (48.2 lunar distances, 0.1237 AU), travelling at 6.37 km/second, to the Earth-Moon system on the 24th September 2014 @ 09:17 UT ±00:07.  See more The Lunar Distance (LD), the distance between Earth and the Moon, equals 384,401 km, (or 0.00...  
							 
							
						 
						
					
				 | 
				
					
						Blobrana
					 | 
				
				
					
						0
					 | 
				
				
				
					
						
					 | 
				
				
					
						
					 | 
				
			
		
			
			
				
				
					
						 
					 | 
				
				
				
					
						
					 | 
				
				
				
					
					
					Asteroid 2014 SG143
					
					
					
					
						
					
					
						
							(Preview)
						
						
						
						
							
						
							
								Orbital elements:
2014 SG143                                               Earth MOID = 0.2499 AU
Epoch 2014 Dec. 9.0 TT = JDT 2457000.5                  MPC
M 193.96595              (2000.0)            P               Q
n   0.48474891     Peri.  238.40032     -0.88134432     +0.42769328
a   1.6049376      Node   325.69885     -0.21155945     -0.73719789
e   0.2863043      Incl.   20.87150     -0.42246277     -0.52308482
P   2.03           H   18.... 
							 
							
						 
						
					
				 | 
				
					
						Blobrana
					 | 
				
				
					
						0
					 | 
				
				
				
					
						
					 | 
				
				
					
						
					 | 
				
			
		
			
			
				
				
					
						 
					 | 
				
				
				
					
						
					 | 
				
				
				
					
					
					Asteroid 2014 SP142
					
					
					
					
						
					
					
						
							(Preview)
						
						
						
						
							
						
							
								Orbital elements:
2014 SP142                                          PHA, Earth MOID = 0.0016 AU
Epoch 2014 Dec. 9.0 TT = JDT 2457000.5                  MPC
M 165.97146              (2000.0)            P               Q
n   0.78829527     Peri.   81.19659     -0.89184068     +0.44534239
a   1.1605845      Node   125.21087     -0.44374130     -0.82727352
e   0.4198333      Incl.    5.57062     -0.08782858     -0.34247435
P   1.25           H   2... 
							 
							
						 
						
					
				 | 
				
					
						Blobrana
					 | 
				
				
					
						0
					 | 
				
				
				
					
						
					 | 
				
				
					
						
					 | 
				
			
		
			
			
				
				
					
						 
					 | 
				
				
				
					
						
					 | 
				
				
				
					
					
					Asteroid 2014 SV141
					
					
					
					
						
					
					
						
							(Preview)
						
						
						
						
							
						
							
								Orbital elements:
2014 SV141                                          PHA, Earth MOID = 0.0496 AU
Epoch 2014 Dec. 9.0 TT = JDT 2457000.5                  MPC
M  40.57313              (2000.0)            P               Q
n   0.31593333     Peri.  141.68795     +0.50673687     +0.86067544
a   2.1350387      Node   158.61946     -0.82069377     +0.49920042
e   0.5241705      Incl.    7.81218     -0.26396870     +0.10018346
P   3.12           H   2... 
							 
							
						 
						
					
				 | 
				
					
						Blobrana
					 | 
				
				
					
						0
					 | 
				
				
				
					
						
					 | 
				
				
					
						
					 | 
				
			
		
			
			
				
				
					
						 
					 | 
				
				
				
					
						
					 | 
				
				
				
					
					
					Asteroid 2007 RY19
					
					
					
					
						
					
					
						
							(Preview)
						
						
						
						
							
						
							
								The 84 - 190 metre wide asteroid 2007 RY19 will make a close pass (28.2 lunar distances, 0.0725 AU), travelling at 10.67 km/second, to the Earth-Moon system on the 23rd September 2014 @ 13:25 UT ±00:01.  See more The Lunar Distance (LD), the distance between Earth and the Moon, equals 384,401 km, (or 0...  
							 
							
						 
						
					
				 | 
				
					
						Blobrana
					 | 
				
				
					
						0
					 | 
				
				
				
					
						
					 | 
				
				
					
						
					 | 
				
			
		
			
			
				
				
					
						 
					 | 
				
				
				
					
						
					 | 
				
				
				
					
					
					Asteroid (4212) Sansyu-Asuke
					
					
					
					
						
					
					
						
							(Preview)
						
						
						
						
							
						
							
								On the 22nd September 2014, asteroid (4212) Sansyu-Asuke will occult a 6.8 mag star in the constellation Scorpius for observers along a path across SE USA, Mexico.  Read more 
							 
							
						 
						
					
				 | 
				
					
						Blobrana
					 | 
				
				
					
						0
					 | 
				
				
				
					
						
					 | 
				
				
					
						
					 | 
				
			
		
			
			
				
				
					
						 
					 | 
				
				
				
					
						
					 | 
				
				
				
					
					
					Asteroid (70) Panopaea
					
					
					
					
						
					
					
						
							(Preview)
						
						
						
						
							
						
							
								Asteroid (70) Panopaea was discovered by Hermann Goldschmidt on 5 May 1861 Read more 
							 
							
						 
						
					
				 | 
				
					
						Blobrana
					 | 
				
				
					
						1
					 | 
				
				
				
					
						
					 | 
				
				
					
						
					 | 
				
			
		
			
			
				
				
					
						 
					 | 
				
				
				
					
						
					 | 
				
				
				
					
					
					Asteroid 2014 SC
					
					
					
					
						
					
					
						
							(Preview)
						
						
						
						
							
						
							
								The 14 - 31 metre wide asteroid 2014 SC will make a close pass (11.9 lunar distances, 0.0305 AU), travelling at 7.54 km/second, to the Earth-Moon system on the 22nd September 2014 @ 09:55 UT ±00:01.  See more The Lunar Distance (LD), the distance between Earth and the Moon, equals 384,401 km, (or 0.002...  
							 
							
						 
						
					
				 | 
				
					
						Blobrana
					 | 
				
				
					
						0
					 | 
				
				
				
					
						
					 | 
				
				
					
						
					 | 
				
			
		
			
			
				
				
					
						 
					 | 
				
				
				
					
						
					 | 
				
				
				
					
					
					Asteroid 2014 SL1
					
					
					
					
						
					
					
						
							(Preview)
						
						
						
						
							
						
							
								The 16 - 36 metre wide asteroid 2014 SL1 will make a close pass (27.8 lunar distances, 0.0714 AU), travelling at 5.28 km/second, to the Earth-Moon system on the 21st September 2014 @ 10:23 UT ±00:09.  See more The Lunar Distance (LD), the distance between Earth and the Moon, equals 384,401 km, (or 0.00...  
							 
							
						 
						
					
				 | 
				
					
						Blobrana
					 | 
				
				
					
						0
					 | 
				
				
				
					
						
					 | 
				
				
					
						
					 | 
				
			
		
			
			
				
				
					
						 
					 | 
				
				
				
					
						
					 | 
				
				
				
					
					
					Asteroid 2014 SG1
					
					
					
					
						
					
					
						
							(Preview)
						
						
						
						
							
						
							
								Orbital elements:
2014 SG1                                                 Earth MOID = 0.0010 AU
Epoch 2014 Dec. 9.0 TT = JDT 2457000.5                  MPC
M  16.86752              (2000.0)            P               Q
n   0.63048802     Peri.  253.37687     +0.32918754     -0.94417970
a   1.3469500      Node   177.30277     +0.93597557     +0.32449605
e   0.4083024      Incl.   15.60555     +0.12484111     +0.05680673
P   1.56           H   29.1           G   0... 
							 
							
						 
						
					
				 | 
				
					
						Blobrana
					 | 
				
				
					
						1
					 | 
				
				
				
					
						
					 | 
				
				
					
						
					 | 
				
			
		
			
			
				
				
					
						 
					 | 
				
				
				
					
						
					 | 
				
				
				
					
					
					Asteroid (12249) 1988 SH2
					
					
					
					
						
					
					
						
							(Preview)
						
						
						
						
							
						
							
								On the 20th September 2014, asteroid (12249) 1988 SH2 will occult a 6.4 mag star in the constellation Cetus for observers along a path across Australia. Read more 
							 
							
						 
						
					
				 | 
				
					
						Blobrana
					 | 
				
				
					
						0
					 | 
				
				
				
					
						
					 | 
				
				
					
						
					 | 
				
			
		
			
			
				
				
					
						 
					 | 
				
				
				
					
						
					 | 
				
				
				
					
					
					Asteroid 2014 RW18
					
					
					
					
						
					
					
						
							(Preview)
						
						
						
						
							
						
							
								The 17 - 39 metre wide asteroid 2014 RW18 will make a close pass (6.3 lunar distances, 0.0162 AU), travelling at 7.32 km/second, to the Earth-Moon system on the 20th September 2014 @ 01:33 UT ±00:02.  See more The Lunar Distance (LD), the distance between Earth and the Moon, equals 384,401 km, (or 0.00...  
							 
							
						 
						
					
				 | 
				
					
						Blobrana
					 | 
				
				
					
						0
					 | 
				
				
				
					
						
					 | 
				
				
					
						
					 | 
				
			
		
			
			
				
				
					
						 
					 | 
				
				
				
					
						
					 | 
				
				
				
					
					
					Asteroid 2014 QJ33
					
					
					
					
						
					
					
						
							(Preview)
						
						
						
						
							
						
							
								The 46 - 100 metre wide asteroid 2014 QJ33 will make a close pass (15.6 lunar distances, 0.0401 AU), travelling at 7.97 km/second, to the Earth-Moon system on the 20th September 2014 @ 04:09 UT ±00:01.  See more The Lunar Distance (LD), the distance between Earth and the Moon, equals 384,401 km, (or 0....  
							 
							
						 
						
					
				 | 
				
					
						Blobrana
					 | 
				
				
					
						0
					 | 
				
				
				
					
						
					 | 
				
				
					
						
					 |